Hourly Data Report for January 24, 2001

SHERBROOKE A
QUEBEC

45°26'00.000" N
71°41'00.000" W
241.40 m
7028124
71610
YSC

Download Data

Hourly Data (January 2001)
Hourly Data Report for January 24, 2001
TIME
LST
Temp Definition
°C
Dew Point Definition
°C
Rel Hum Definition
%
Precip. Amount Definition
mm

Wind Dir Definition
10's deg

Wind Spd Definition
km/h
Visibility Definition
km
Stn Press Definition
kPa
Hmdx Definition


Wind Chill Definition


Weather Definition


00:00 -3.9 -6.9 80     0 15.0 98.52      
01:00 -3.1 -7.7 70   22 4 15.0 98.49   -5  
02:00 -3.2 -7.5 72   23 6 15.0 98.45   -6  
03:00 -3.2 -6.7 77   24 6 15.0 98.42   -6  
04:00 -2.9 -6.3 77   21 6 15.0 98.39   -5 Snow
05:00 -3.2 -6.3 79     0 11.3 98.36     Snow
06:00 -3.5 -6.1 82     0 8.0 98.36     Snow
07:00 -3.0 -5.4 83     0 8.0 98.32     Snow
08:00 -3.5 -5.6 85     0 9.7 98.36     Snow
09:00 -3.1 -5.2 85   20 6 6.4 98.39   -6 Snow
10:00 -2.1 -4.4 84   21 4 9.7 98.36   -4 Snow
11:00 -1.6 -4.1 83   20 7 12.9 98.32   -4 Snow
12:00 -1.4 -3.8 84   21 6 4.8 98.26   -4 Snow
13:00 -1.3 -3.4 86   25 4 9.7 98.19   -3 Snow
14:00 -0.8 -3.5 82   23 6 16.1 98.16   -3 Snow
15:00 -0.9 -3.6 82   28 9 8.0 98.19   -4 Snow
16:00 -1.1 -3.4 84   23 6 12.9 98.22   -3 Snow
17:00 -1.2 -3.8 82   25 7 9.7 98.22   -4 Snow
18:00 -1.4 -3.9 83   25 7 8.0 98.26   -4  
19:00 -2.0 -4.2 85   24 7 6.4 98.26   -5 Snow
20:00 -2.3 -4.1 87   27 11 3.9 98.26   -6 Snow
21:00 -3.4 -5.4 86   24 7 4.8 98.26   -6 Snow
22:00 -5.7 -6.6 93   23 4 2.6 98.26   -8  
23:00 -4.4 -6.0 89   30 6 3.2 98.29   -7  

Notes on Data Quality.

Legend

  • E = Estimated
  • M = Missing
  • NA = Not Available*
  • [empty] = Indicates an unobserved value
Date modified: